#timestamp,LO_Frequency,Hit,StdDev 
1457010015.6,286047012.0,Y
1457010035.4,286046997.2,P
1457010055.2,286046993.8,N
1457010075.1,286046996.2,N
1457010076.0,286046996.2,N
1457010095.8,286046998.0,N
1457010115.6,286046993.9,N
1457010135.5,286046997.7,N
1457010155.3,286046996.7,N
1457010175.1,286046997.2,N
1457010195.9,286046995.9,N
1457010215.7,286046995.4,N
1457010235.5,286046997.1,N
1457010255.4,286046997.1,N
1457010275.2,286046995.0,N
1457010295.0,286046997.5,N
1457010295.9,286046997.5,N
1457010315.7,286046995.2,N
1457010335.6,286046996.7,N
1457010355.4,286046995.0,N
1457010375.2,286046996.9,N
1457010395.1,286046997.9,N
1457010396.0,286046997.9,N
1457010415.8,286046993.3,N
1457010435.6,286046992.6,N
1457010455.5,286046988.5,Y
1457010475.3,286046992.8,P
1457010495.1,286046992.2,P
1457010515.9,286046992.9,P
1457010535.7,286046992.8,Y
1457010555.5,286046999.8,P
1457010575.4,286047001.6,N
1457010595.2,286047004.0,N
1457010615.0,286047000.7,N
1457010615.9,286047000.7,N
1457010635.8,286046999.4,N
1457010655.6,286047000.9,N
1457010675.4,286047003.8,N
1457010695.3,286047007.4,N
1457010715.1,286047008.7,N
1457010716.0,286047008.7,N
1457010735.8,286047003.8,N
1457010755.7,286047001.1,N
1457010775.5,286046999.0,N
1457010795.3,286047002.0,N
1457010815.2,286047002.5,N
1457010835.9,286047005.6,N
1457010855.7,286047003.3,N
1457010875.5,286047007.4,N
1457010895.4,286047006.3,N
1457010915.2,286047005.0,N
1457010935.0,286047008.4,N
1457010935.9,286047008.4,N
1457010955.8,286047006.2,N
1457010975.6,286047005.7,N
1457010995.4,286047005.8,N
1457011015.3,286047001.6,N
1457011035.1,286047002.3,N
1457011036.0,286047002.3,N
1457011055.8,286047002.0,N
1457011075.7,286046999.9,N
1457011095.5,286046995.3,N
1457011115.3,286046996.7,N
1457011135.2,286046999.1,N
1457011155.9,286047000.5,N
1457011175.7,286047001.9,N
1457011195.5,286046998.7,N
1457011215.4,286046999.6,N
1457011235.2,286046999.5,N
1457011255.0,286046995.8,N
1457011255.9,286046995.8,N
1457011275.8,286046996.0,N
1457011295.6,286046999.6,N
1457011315.4,286046999.2,N
1457011335.3,286046999.3,N
1457011355.1,286046995.1,N
1457011375.8,286046997.9,N
1457011395.7,286046999.2,N
1457011415.5,286046996.4,N
1457011435.3,286046992.8,N
1457011455.2,286046988.5,N
1457011475.9,286046985.9,Y
1457011495.7,286046993.0,P
1457011515.6,286046992.5,N
1457011535.4,286046992.9,N
1457011555.2,286046992.2,N
1457011575.1,286046993.1,N
1457011576.0,286046993.1,N
1457011595.8,286046990.6,Y
1457011615.6,286046999.4,P
1457011635.5,286046995.3,N
1457011655.3,286046994.8,N
1457011675.1,286046993.2,Y
1457011695.9,286046993.4,P
1457011715.7,286046992.6,P
1457011735.5,286046990.3,P
1457011755.4,286046991.0,Y
1457011775.2,286046998.7,P
1457011795.0,286046997.8,N
1457011795.9,286046997.8,N
1457011815.8,286046995.3,N
1457011835.6,286046993.6,Y
1457011855.4,286046992.5,P
1457011875.3,286046990.2,P
1457011895.1,286046988.2,P
1457011896.0,286046988.2,Y
1457011915.8,286046994.1,P
1457011935.7,286046990.6,P
1457011955.5,286046989.0,P
1457011975.3,286046986.1,Y
1457011995.2,286046992.1,P
1457012015.9,286046993.3,P
1457012035.7,286046993.0,P
1457012055.6,286046990.7,Y
1457012075.4,286046993.3,P
1457012095.2,286046991.8,P
1457012115.1,286046988.6,P
1457012116.0,286046988.6,Y
1457012135.8,286046998.7,P
1457012155.6,286047004.9,N
1457012175.5,286047005.7,N
1457012195.3,286047007.3,N
1457012215.1,286047000.2,N
1457012235.9,286046999.6,N
1457012255.7,286046996.5,N
1457012275.5,286046996.7,N
1457012295.4,286046994.9,N
1457012315.2,286046995.2,N
1457012335.0,286046996.3,N
1457012335.9,286046996.3,N
1457012355.7,286046995.4,N
1457012375.6,286047003.6,N
1457012395.4,286047002.9,N
1457012415.2,286047004.6,N
1457012435.1,286047008.0,N
1457012436.0,286047008.0,N
1457012455.8,286047007.4,N
1457012475.6,286047005.0,N
1457012495.5,286047003.1,N
1457012515.3,286047006.0,N
1457012535.1,286047001.3,N
1457012555.9,286047003.7,N
1457012575.7,286047000.2,N
1457012595.5,286046998.2,N
1457012615.4,286046996.6,N
1457012635.2,286047004.0,N
1457012655.0,286047000.7,N
1457012655.9,286047000.7,N
1457012675.8,286046998.7,N
1457012695.6,286047002.6,N
1457012715.4,286047005.3,N
1457012735.2,286047011.5,N
1457012755.1,286047018.8,Y
1457012756.0,286047018.8,P
1457012775.8,286047019.9,N
1457012795.6,286047025.2,N
1457012815.5,286047025.9,N
1457012835.3,286047027.9,Y
1457012855.1,286047014.0,P
1457012875.9,286047014.2,P
1457012895.7,286047017.7,P
1457012915.6,286047017.3,Y
1457012935.4,286047004.1,P
1457012955.2,286047004.5,N
1457012975.0,286047008.8,N
1457012975.9,286047008.8,N
1457012995.8,286047010.8,N
1457013015.6,286047007.9,N
1457013035.4,286047010.3,N
1457013055.3,286047010.4,N
1457013075.1,286047007.2,N
1457013095.8,286047004.6,N
1457013115.7,286047005.3,N
1457013135.5,286047010.5,Y
1457013155.3,286047004.1,P
1457013175.2,286047002.8,N
1457013195.9,286047003.1,N
1457013215.7,286047002.1,N
1457013235.6,286047004.0,N
1457013255.4,286047000.9,N
1457013275.2,286046997.0,N
1457013295.1,286046995.0,N
1457013296.0,286046995.0,N
1457013315.8,286046996.7,N
1457013335.6,286047000.6,N
1457013355.5,286047000.2,N
1457013375.3,286047002.7,N
1457013395.2,286047002.4,N
1457013415.9,286047004.3,N
1457013435.7,286047004.9,N
1457013455.5,286047009.5,N
1457013475.4,286047010.3,N
1457013495.2,286047011.1,N
1457013515.0,286047011.9,N
1457013515.9,286047011.9,N
1457013535.8,286047011.5,N
1457013555.6,286047012.1,N
1457013575.4,286047004.9,N
1457013595.3,286046999.8,N
